[[{"header":{"parameterUnit":"m.s-1","parameterCategory":2,"la1":30.2991,"la2":30.254,"lo1":-89.0895,"lo2":-89.0444,"dy":0.0017,"dx":0.0017,"nx":28,"ny":28,"refTime":"2026-02-02T03:00:00:Z","depth":"0","parameterNumber":2,"parameterNumberName":"U-component_of_CURRENTS"},"data":[0,0,0,0,0,0,0,0,0,0,0,0,0,0,0,0,0,0,0,0,0,0,0,0,0,0,0,0,0,0,0,0,0,0,0,0,0,0,0,0,0,0,0,0,0,0,0,0,0,0,0,0,0,0,0,0,0,0,0.49,0.4901,0,0.5037,0.5039,0.504,0.5087,0.5086,0.5086,0.5085,0.5136,0.5138,0.5139,0,0,0,0,0,0,0,0,0,0,0,0,0,0.4752,0.4754,0.49,0.4901,0.4903,0.5037,0.5039,0.5041,0.5087,0.5086,0.5086,0.5085,0.5135,0.5137,0.514,0,0,0,0,0,0,0,0,0,0,0,0,0,0.4846,0.4755,0.4899,0.4942,0.4947,0.5036,0.5039,0.5041,0.5087,0.5086,0.5085,0.5085,0.5134,0.5137,0.514,0.5176,0,0,0.5149,0.515,0,0,0,0,0,0,0,0,0.484,0.4851,0.4934,0.4939,0.4945,0.5043,0.5005,0.5082,0.5087,0.5035,0.5085,0.5084,0.5097,0.5103,0.5133,0.5178,0.518,0.5149,0.5151,0.5152,0.5153,0,0,0,0,0,0,0,0.4834,0.4846,0.4955,0.4936,0.4943,0.498,0.4991,0.5021,0.5068,0.5039,0.5043,0.5057,0.5099,0.513,0.5134,0.5181,0.5149,0.5151,0.5153,0.5154,0.5272,0.5273,0,0,0,0,0,0,0.4813,0.484,0.495,0.4959,0.4889,0.4983,0.4996,0.5013,0.507,0.5078,0.5058,0.5059,0.5126,0.5131,0.5136,0.5161,0.5152,0.5155,0.5156,0.5271,0.5272,0.5274,0,0,0,0,0,0,0.4809,0.4822,0.4945,0.4901,0.492,0.4985,0.5005,0.5016,0.5042,0.5085,0.5092,0.5071,0.5125,0.5132,0.5167,0.5163,0.5156,0.5159,0.5269,0.5271,0.5273,0.5223,0,0,0,0,0,0,0.4805,0.482,0.4826,0.49,0.4921,0.4979,0.5006,0.502,0.5053,0.5055,0.5099,0.5103,0.5125,0.5162,0.5169,0.5167,0.5161,0.5267,0.527,0.5272,0.5223,0.5224,0.5224,0,0,0,0,0,0.4799,0.4806,0.4826,0.4839,0.4928,0.4978,0.4992,0.5037,0.5054,0.5058,0.5102,0.5101,0.5184,0.5166,0.5174,0.5172,0.5266,0.5269,0.5272,0.5223,0.5224,0.5224,0,0,0,0,0,0,0.4737,0.4814,0.4837,0.4864,0.4909,0.4985,0.4999,0.5035,0.5077,0.5077,0.5119,0.5127,0.516,0.5182,0.5161,0.522,0.5226,0.5231,0.5186,0.5186,0.5187,0.5144,0.5163,0,0,0,0,0,0.4729,0.4757,0.4826,0.4845,0.4866,0.4934,0.4962,0.4991,0.504,0.5059,0.5094,0.5138,0.5184,0.5194,0.5235,0.5261,0.5288,0.5269,0.527,0.5269,0.5244,0.5299,0.53,0.5284,0.5284,0.5284,0,0,0.4708,0.4755,0.4769,0.4834,0.4875,0.4909,0.4947,0.498,0.5006,0.5056,0.5093,0.5139,0.5195,0.523,0.5246,0.5241,0.5296,0.5273,0.5272,0.5246,0.5302,0.5303,0.5304,0.5286,0.5286,0.5286,0,0,0.469,0.4721,0.4746,0.4786,0.4844,0.4881,0.4887,0.4957,0.498,0.5026,0.5078,0.5115,0.5181,0.5216,0.5246,0.5272,0.5302,0.5296,0.5248,0.5302,0.5303,0.5304,0.536,0.5366,0.5287,0.5287,0.5287,0,0.4665,0.47,0.4756,0.4793,0.4809,0.4865,0.4879,0.4925,0.4995,0.5003,0.5022,0.5125,0.517,0.5215,0.5231,0.5266,0.5308,0.5236,0.5299,0.53,0.5302,0.5359,0.5366,0.5285,0.5285,0.5285,0.5285,0,0.4682,0.47,0.471,0.4773,0.4798,0.481,0.4872,0.4892,0.492,0.4963,0.5004,0.5074,0.5126,0.5159,0.5203,0.5242,0.5275,0.5297,0.5285,0.5299,0.536,0.5369,0.5282,0.5282,0.5283,0.5284,0,0,0.4627,0.4707,0.4703,0.4709,0.4776,0.4789,0.4821,0.485,0.4853,0.4918,0.4925,0.5018,0.5048,0.5085,0.5147,0.5187,0.5253,0.5241,0.5245,0.5274,0.5382,0.5304,0.5306,0.5291,0.5292,0.5293,0.5426,0,0.4607,0.4646,0.4692,0.4691,0.47,0.4743,0.4763,0.4799,0.4828,0.4852,0.4917,0.4962,0.5027,0.5051,0.5105,0.5222,0.527,0.5215,0.5382,0.5387,0.5297,0.5311,0.5048,0.5135,0.5434,0.5435,0.5436,0,0.4595,0.4615,0.4619,0.4626,0.4632,0.4642,0.4637,0.4669,0.4725,0.4748,0.4796,0.4864,0.4948,0.4995,0.5172,0.5139,0.525,0.5331,0.5339,0.5277,0.5322,0.5169,0.5139,0.4947,0.545,0.5449,0.5448,0,0.4508,0.4542,0.4526,0.4539,0.458,0.4567,0.4582,0.4626,0.4632,0.4688,0.4692,0.4804,0.4858,0.5005,0.5188,0.5192,0.5372,0.5404,0.5434,0.5432,0.5241,0.5218,0.5014,0.551,0.551,0.551,0.5509,0,0.4456,0.4435,0.4481,0.4473,0.4435,0.4492,0.4458,0.4492,0.4527,0.4525,0.4636,0.4666,0.4864,0.4996,0.5165,0.5319,0.5368,0.5412,0.545,0.522,0.5196,0.5048,0.4996,0.5515,0.5514,0.5513,0.5512,0,0.4372,0.4404,0.4385,0.4405,0.44,0.4379,0.4387,0.437,0.4417,0.4417,0.4435,0.4576,0.4747,0.4938,0.5181,0.527,0.5278,0.5485,0.5199,0.5198,0.5007,0.4964,0.4765,0.4648,0.5518,0.5517,0.5515,0,0.4342,0.4327,0.4327,0.4303,0.4306,0.4285,0.4268,0.4311,0.43,0.437,0.4366,0.4515,0.4624,0.4927,0.5106,0.5338,0.5216,0.5201,0.5142,0.4929,0.4912,0.4802,0.4711,0.4897,0.4891,0.4886,0.4882,0,0.4278,0.4278,0.4267,0.4223,0.4191,0.4149,0.4133,0.4106,0.4154,0.4179,0.4253,0.4349,0.4592,0.4682,0.4925,0.506,0.4884,0.5106,0.4944,0.4435,0.4241,0.4167,0.4899,0.4837,0.4842,0.4845,0.4847,0.4849,0.4233,0.4208,0.4194,0.4135,0.4089,0.401,0.3936,0.3943,0.3932,0.3916,0.4098,0.4139,0.4248,0.4561,0.4671,0.4562,0.4658,0.4415,0.4401,0.4325,0.4106,0.4736,0.4678,0.4681,0.4684,0.4687,0.4689,0,0.4181,0.4152,0.4102,0.4015,0.3911,0.392,0.3833,0.3739,0.3694,0.3742,0.3802,0.3782,0.3826,0.3933,0.3948,0.3847,0.3777,0.3712,0.3451,0.342,0.4012,0.3871,0.3556,0.3556,0.3556,0.3557,0.3557,0.3557,0.4157,0.4093,0.4056,0.3866,0.3783,0.3605,0.3528,0.3428,0.34,0.3281,0.321,0.3236,0.3328,0.3338,0.3221,0.3192,0.2991,0.2842,0.2923,0.327,0.3333,0.3392,0.3241,0.2799,0.2798,0.2161,0.2156,0.2151]},{"header":{"parameterUnit":"m.s-1","parameterCategory":2,"la1":30.2991,"la2":30.254,"lo1":-89.0895,"lo2":-89.0444,"dy":0.0017,"dx":0.0017,"nx":28,"ny":28,"refTime":"2026-02-02T03:00:00:Z","depth":"0","parameterNumber":3,"parameterNumberName":"V-component_of_CURRENTS"},"data":[0,0,0,0,0,0,0,0,0,0,0,0,0,0,0,0,0,0,0,0,0,0,0,0,0,0,0,0,0,0,0,0,0,0,0,0,0,0,0,0,0,0,0,0,0,0,0,0,0,0,0,0,0,0,0,0,0,0,0.0124,0.0123,0,0.0069,0.0068,0.0067,0.0025,0.0025,0.0025,0.0025,0.0031,0.0032,0.0032,0,0,0,0,0,0,0,0,0,0,0,0,0,0.0155,0.0155,0.0124,0.0123,0.0123,0.0069,0.0068,0.0067,0.0025,0.0025,0.0025,0.0025,0.0031,0.0032,0.0032,0,0,0,0,0,0,0,0,0,0,0,0,0,0.0123,0.0155,0.0124,0.0098,0.0095,0.0069,0.0068,0.0067,0.0025,0.0025,0.0025,0.0025,0.0031,0.0031,0.0032,0.0038,0,0,0.0033,0.0033,0,0,0,0,0,0,0,0,0.0125,0.0121,0.0102,0.0099,0.0096,0.0056,0.0081,0.0061,0.0025,0.0049,0.0025,0.0025,0.0047,0.0046,0.0032,0.0039,0.0039,0.0033,0.0034,0.0034,0.0034,0,0,0,0,0,0,0,0.0127,0.0123,0.0099,0.0102,0.0098,0.0076,0.0071,0.0077,0.0049,0.0047,0.0044,0.0043,0.0046,0.0031,0.0032,0.0039,0.0033,0.0034,0.0034,0.0034,0.0126,0.0128,0,0,0,0,0,0,0.0142,0.0125,0.0101,0.0098,0.0113,0.0076,0.0071,0.0067,0.0047,0.0044,0.0043,0.0041,0.003,0.0031,0.0032,0.0111,0.0034,0.0034,0.0034,0.0124,0.0127,0.0129,0,0,0,0,0,0,0.0142,0.014,0.0103,0.0113,0.0107,0.0076,0.0072,0.0066,0.0054,0.0044,0.0042,0.0039,0.003,0.0031,0.0051,0.0109,0.0034,0.0035,0.0122,0.0125,0.0128,0.0224,0,0,0,0,0,0,0.0143,0.014,0.0146,0.0114,0.0107,0.0102,0.0073,0.0065,0.0055,0.0052,0.004,0.004,0.003,0.005,0.0051,0.0108,0.0035,0.0119,0.0123,0.0127,0.0218,0.023,0.0241,0,0,0,0,0,0.0145,0.0154,0.0147,0.0144,0.0115,0.0103,0.0098,0.0073,0.0055,0.0059,0.0053,0.004,0.0078,0.0052,0.0053,0.0111,0.0117,0.0122,0.0127,0.0213,0.0228,0.024,0,0,0,0,0,0,0.0161,0.015,0.0141,0.0144,0.0133,0.0098,0.0094,0.0078,0.0072,0.0067,0.0055,0.0055,0.0101,0.0087,0.0059,0.0151,0.0101,0.0106,0.0167,0.0181,0.0192,0.0201,0.0035,0,0,0,0,0,0.0171,0.0177,0.0161,0.016,0.0157,0.0126,0.0118,0.0102,0.009,0.0084,0.0085,0.0092,0.0122,0.0133,0.0147,0.0185,0.0176,0.0228,0.0239,0.0249,0.0258,0.0293,0.0308,0.0145,0.0145,0.0145,0,0,0.0169,0.0169,0.0166,0.0165,0.0146,0.0161,0.012,0.0109,0.0134,0.009,0.0125,0.0129,0.014,0.0191,0.0212,0.0187,0.0291,0.0255,0.0263,0.0267,0.03,0.0315,0.0329,0.0149,0.0148,0.0148,0,0,0.0181,0.0174,0.0189,0.0194,0.0188,0.0178,0.0181,0.0162,0.0166,0.0192,0.0186,0.0224,0.0243,0.028,0.0297,0.0378,0.0349,0.0383,0.0449,0.0483,0.0497,0.0509,0.0516,0.0527,0.039,0.039,0.039,0,0.0185,0.0204,0.0189,0.0217,0.0229,0.0194,0.022,0.0225,0.0221,0.0243,0.0219,0.0288,0.0297,0.0385,0.0415,0.0409,0.0401,0.0396,0.0498,0.0509,0.052,0.0524,0.0536,0.0395,0.0394,0.0394,0.0393,0,0.0224,0.0238,0.0245,0.0277,0.029,0.0299,0.0312,0.033,0.0329,0.034,0.0411,0.0423,0.0464,0.0488,0.0474,0.0569,0.053,0.0507,0.0462,0.0542,0.0541,0.0552,0.0402,0.0401,0.0399,0.0398,0,0,0.0233,0.0268,0.0271,0.0294,0.0324,0.0334,0.0388,0.043,0.047,0.049,0.0558,0.0618,0.061,0.063,0.0633,0.0668,0.0738,0.0618,0.0617,0.0622,0.079,0.0734,0.0739,0.0723,0.0725,0.0727,0.0758,0,0.0267,0.0323,0.0341,0.0392,0.0417,0.043,0.0486,0.0524,0.0551,0.0611,0.0648,0.0706,0.067,0.0694,0.073,0.0745,0.0769,0.073,0.0714,0.0714,0.0652,0.0752,0.0683,0.0702,0.0768,0.077,0.0771,0,0.0305,0.034,0.0396,0.045,0.0465,0.0502,0.0577,0.0623,0.0701,0.0725,0.0783,0.0797,0.0879,0.0821,0.0884,0.0854,0.0827,0.0824,0.0824,0.0746,0.0678,0.0634,0.0718,0.0512,0.0786,0.0785,0.0784,0,0.0314,0.0375,0.0421,0.0444,0.0508,0.0545,0.0583,0.0656,0.0715,0.0798,0.085,0.0915,0.0972,0.0963,0.0954,0.0917,0.1002,0.0948,0.0872,0.0866,0.0793,0.0776,0.0674,0.0978,0.0978,0.0978,0.0978,0,0.0345,0.038,0.0427,0.0455,0.0527,0.0561,0.0646,0.0692,0.0783,0.0886,0.0904,0.1017,0.101,0.1054,0.1002,0.0984,0.1038,0.0907,0.0886,0.0823,0.081,0.0613,0.0512,0.0979,0.0978,0.0978,0.0978,0,0.0349,0.0375,0.0433,0.0503,0.0529,0.058,0.0682,0.0757,0.082,0.0959,0.0994,0.1115,0.1187,0.115,0.1166,0.1063,0.0926,0.1,0.0913,0.0882,0.0589,0.0498,0.0425,0.0364,0.0919,0.0918,0.0918,0,0.0362,0.0388,0.0465,0.0512,0.0548,0.0625,0.0697,0.0771,0.0866,0.1047,0.114,0.1244,0.1393,0.1372,0.1201,0.109,0.093,0.0894,0.0816,0.0584,0.0468,0.0421,0.0373,0.0755,0.0753,0.0751,0.075,0,0.0398,0.0417,0.0469,0.0562,0.0636,0.0733,0.0839,0.0923,0.1047,0.1205,0.1455,0.1592,0.1544,0.1463,0.1231,0.1105,0.0727,0.0853,0.0652,0.0371,0.0279,0.0206,0.0699,0.0735,0.0736,0.0737,0.0738,0.0739,0.043,0.0475,0.0543,0.0635,0.0728,0.0867,0.0986,0.1149,0.136,0.1663,0.1718,0.1973,0.1652,0.1375,0.1152,0.0581,0.0655,0.0396,0.0319,0.0304,0.0202,0.0649,0.0634,0.0634,0.0635,0.0636,0.0636,0,0.0482,0.0535,0.0623,0.0749,0.0876,0.091,0.1115,0.13,0.1621,0.1883,0.2149,0.2057,0.168,0.1209,0.0452,0.0101,0.0,-0.0108,-0.0213,-0.0222,0.0198,0.0141,-0.0029,-0.0029,-0.0028,-0.0028,-0.0028,-0.0028,0.0517,0.0601,0.065,0.0862,0.0967,0.119,0.1334,0.1649,0.1887,0.2266,0.2373,0.2394,0.1866,0.0582,-0.0277,-0.0444,-0.0648,-0.0707,-0.0757,-0.054,-0.05,-0.0462,-0.054,-0.085,-0.0851,-0.1157,-0.1161,-0.1164]}],[{"header":{"parameterUnit":"m.s-1","parameterCategory":2,"la1":30.2991,"la2":30.254,"lo1":-89.0895,"lo2":-89.0444,"dy":0.0017,"dx":0.0017,"nx":28,"ny":28,"refTime":"2026-02-02T03:00:00:Z","depth":"2","parameterNumber":2,"parameterNumberName":"U-component_of_CURRENTS"},"data":[0,0,0,0,0,0,0,0,0,0,0,0,0,0,0,0,0,0,0,0,0,0,0,0,0,0,0,0,0,0,0,0,0,0,0,0,0,0,0,0,0,0,0,0,0,0,0,0,0,0,0,0,0,0,0,0,0,0,0.1324,0.1324,0,0.1353,0.1353,0.1354,0.1349,0.1349,0.1349,0.1348,0.1419,0.1421,0.1423,0,0,0,0,0,0,0,0,0,0,0,0,0,0.1249,0.125,0.1324,0.1324,0.1325,0.1353,0.1353,0.1354,0.1349,0.1349,0.1349,0.1348,0.1418,0.1421,0.1423,0,0,0,0,0,0,0,0,0,0,0,0,0,0.1277,0.1251,0.1324,0.1328,0.1329,0.1353,0.1353,0.1354,0.1349,0.1349,0.1348,0.1348,0.1417,0.142,0.1423,0.1449,0,0,0.1433,0.1434,0,0,0,0,0,0,0,0,0.1276,0.128,0.1327,0.1328,0.1329,0.135,0.1353,0.1389,0.1349,0.1338,0.1348,0.1348,0.1402,0.1406,0.1408,0.1453,0.1456,0.1433,0.1435,0.1436,0.1437,0,0,0,0,0,0,0,0.1274,0.1279,0.1332,0.1328,0.1329,0.1324,0.1328,0.1359,0.137,0.1339,0.134,0.1348,0.1402,0.1404,0.1409,0.1457,0.1433,0.1436,0.1438,0.1439,0.1633,0.1636,0,0,0,0,0,0,0.1278,0.1277,0.1332,0.1334,0.1305,0.1326,0.133,0.1341,0.1369,0.1373,0.1348,0.1348,0.1399,0.1406,0.1412,0.1534,0.1436,0.1439,0.1441,0.1629,0.1633,0.1637,0,0,0,0,0,0,0.1276,0.1282,0.133,0.1308,0.1314,0.1328,0.1341,0.1342,0.1358,0.1376,0.138,0.1365,0.1399,0.1408,0.1462,0.1534,0.1441,0.1444,0.1626,0.1631,0.1635,0.1722,0,0,0,0,0,0,0.1274,0.1282,0.1297,0.1308,0.1316,0.1359,0.1341,0.1343,0.1364,0.1364,0.1392,0.1397,0.14,0.1457,0.1465,0.1536,0.1446,0.1621,0.1628,0.1634,0.1715,0.173,0.1742,0,0,0,0,0,0.1271,0.1291,0.1297,0.1304,0.1334,0.1361,0.1364,0.137,0.1366,0.1381,0.1404,0.1397,0.1503,0.1462,0.147,0.1544,0.1618,0.1626,0.1633,0.1709,0.1727,0.1742,0,0,0,0,0,0,0.1267,0.1294,0.13,0.1328,0.1351,0.1361,0.138,0.1382,0.141,0.1417,0.1424,0.1432,0.1507,0.1516,0.147,0.1621,0.1566,0.1575,0.1622,0.1638,0.1651,0.167,0.1449,0,0,0,0,0,0.1275,0.1297,0.1321,0.1346,0.136,0.1373,0.1387,0.1394,0.1417,0.1428,0.1452,0.1492,0.1543,0.1579,0.1611,0.169,0.1717,0.175,0.1763,0.1774,0.1799,0.1925,0.1952,0.1661,0.1661,0.1661,0,0,0.1281,0.1299,0.1312,0.1347,0.1364,0.1394,0.138,0.1411,0.1448,0.1435,0.1499,0.1529,0.157,0.1655,0.1694,0.1675,0.1864,0.1784,0.1793,0.1811,0.1936,0.1964,0.1989,0.1666,0.1665,0.1664,0,0,0.1301,0.1322,0.1347,0.1371,0.1407,0.142,0.1435,0.1465,0.1491,0.1553,0.1564,0.1644,0.1702,0.1765,0.18,0.1912,0.1918,0.1925,0.2025,0.2147,0.2172,0.2195,0.2227,0.2252,0.1948,0.1948,0.1948,0,0.1309,0.1343,0.1359,0.1392,0.1422,0.1436,0.1476,0.1506,0.1553,0.1615,0.1587,0.1742,0.1765,0.1907,0.1946,0.1945,0.1983,0.1954,0.2165,0.2188,0.221,0.2237,0.2264,0.1953,0.1952,0.1952,0.1951,0,0.1342,0.1378,0.1397,0.1445,0.1481,0.1517,0.1563,0.1619,0.1655,0.1707,0.1845,0.1884,0.1995,0.2017,0.2013,0.2194,0.2157,0.2152,0.2121,0.2244,0.2265,0.2291,0.196,0.1958,0.1957,0.1956,0,0,0.1344,0.1408,0.1417,0.1453,0.1515,0.1548,0.1636,0.1739,0.1822,0.1896,0.202,0.2129,0.2178,0.2221,0.2244,0.2347,0.2507,0.2324,0.2328,0.2347,0.2729,0.2574,0.2585,0.2549,0.2555,0.256,0.2667,0,0.1369,0.1429,0.1466,0.1541,0.158,0.1645,0.1725,0.1829,0.1914,0.2034,0.2143,0.2253,0.2248,0.2307,0.2423,0.249,0.2587,0.2475,0.2615,0.2618,0.246,0.2616,0.2371,0.2437,0.2692,0.2696,0.2699,0,0.1392,0.1433,0.1503,0.1604,0.1631,0.1687,0.1843,0.1918,0.2099,0.2177,0.2337,0.2397,0.258,0.2526,0.2756,0.2689,0.273,0.2761,0.2766,0.2615,0.2513,0.2365,0.2474,0.2741,0.2738,0.2735,0.2732,0,0.1378,0.1466,0.1524,0.1554,0.1665,0.1741,0.1818,0.1984,0.2068,0.228,0.2366,0.2578,0.2679,0.2811,0.2893,0.285,0.3095,0.3041,0.2932,0.2917,0.2733,0.2692,0.3206,0.3206,0.3206,0.3206,0.3205,0,0.1386,0.1436,0.1525,0.1556,0.1649,0.1745,0.1872,0.1987,0.2153,0.229,0.2442,0.2575,0.2765,0.291,0.2964,0.3037,0.3174,0.2983,0.297,0.2748,0.2709,0.2993,0.2967,0.321,0.3209,0.3208,0.3207,0,0.1355,0.1411,0.1478,0.1597,0.1638,0.1709,0.1858,0.1951,0.2124,0.23,0.2372,0.2619,0.2838,0.2964,0.3169,0.3108,0.3191,0.3169,0.2846,0.2792,0.2896,0.2874,0.3065,0.3061,0.3057,0.3055,0.3053,0,0.1339,0.1366,0.1473,0.1509,0.1565,0.1674,0.1748,0.1921,0.202,0.2329,0.2408,0.267,0.2827,0.3026,0.3012,0.306,0.3189,0.2821,0.2697,0.2933,0.2901,0.2883,0.2865,0.2474,0.2467,0.2461,0.2457,0,0.1296,0.1333,0.1378,0.145,0.1524,0.1601,0.1729,0.1794,0.2032,0.2204,0.2474,0.262,0.2782,0.275,0.2754,0.274,0.2791,0.2701,0.3129,0.2523,0.2379,0.2344,0.2347,0.2407,0.2412,0.2416,0.2418,0.242,0.1246,0.1256,0.1311,0.1382,0.1458,0.1535,0.1606,0.1756,0.1922,0.2143,0.2354,0.25,0.2516,0.2412,0.2371,0.2324,0.2474,0.2366,0.2383,0.2407,0.2296,0.2152,0.2113,0.2116,0.2118,0.2121,0.2123,0,0.1167,0.1199,0.1243,0.1318,0.1371,0.1472,0.1596,0.1659,0.1854,0.2007,0.2196,0.2047,0.199,0.2075,0.1879,0.1799,0.1779,0.1782,0.1765,0.1814,0.1857,0.1719,0.1383,0.1381,0.1379,0.1378,0,0,0.1119,0.1119,0.1148,0.1208,0.1305,0.1396,0.1482,0.1596,0.1697,0.1748,0.1801,0.1891,0.1985,0.1674,0.1596,0.1495,0.1657,0.1433,0.202,0.205,0.2093,0.2173,0.2011,0,0,0,0,0]},{"header":{"parameterUnit":"m.s-1","parameterCategory":2,"la1":30.2991,"la2":30.254,"lo1":-89.0895,"lo2":-89.0444,"dy":0.0017,"dx":0.0017,"nx":28,"ny":28,"refTime":"2026-02-02T03:00:00:Z","depth":"2","parameterNumber":3,"parameterNumberName":"V-component_of_CURRENTS"},"data":[0,0,0,0,0,0,0,0,0,0,0,0,0,0,0,0,0,0,0,0,0,0,0,0,0,0,0,0,0,0,0,0,0,0,0,0,0,0,0,0,0,0,0,0,0,0,0,0,0,0,0,0,0,0,0,0,0,0,0.0113,0.0112,0,-0.0029,-0.0031,-0.0033,-0.0167,-0.0168,-0.0169,-0.017,-0.042,-0.0426,-0.0431,0,0,0,0,0,0,0,0,0,0,0,0,0,0.0194,0.0193,0.0113,0.0112,0.0111,-0.0029,-0.0031,-0.0034,-0.0167,-0.0168,-0.017,-0.0171,-0.0419,-0.0425,-0.0432,0,0,0,0,0,0,0,0,0,0,0,0,0,0.0112,0.0193,0.0114,0.0031,0.0022,-0.0028,-0.0031,-0.0034,-0.0166,-0.0168,-0.017,-0.0172,-0.0416,-0.0424,-0.0432,-0.0445,0,0,-0.0457,-0.0461,0,0,0,0,0,0,0,0,0.0117,0.0109,0.0044,0.0036,0.0027,-0.0078,-0.0094,-0.0175,-0.0166,-0.0099,-0.0171,-0.0173,-0.0312,-0.0329,-0.0356,-0.0457,-0.0467,-0.0458,-0.0463,-0.0467,-0.0469,0,0,0,0,0,0,0,0.0123,0.0114,0.0052,0.0043,0.0032,-0.0025,-0.0039,-0.011,-0.0198,-0.0105,-0.0114,-0.0123,-0.0318,-0.0347,-0.0363,-0.0471,-0.0458,-0.0465,-0.047,-0.0474,-0.0643,-0.0643,0,0,0,0,0,0,0.0155,0.012,0.0057,0.0049,0.0073,-0.0024,-0.004,-0.0046,-0.0196,-0.0218,-0.0121,-0.0128,-0.0332,-0.0353,-0.0372,-0.0424,-0.0467,-0.0474,-0.0479,-0.0644,-0.0643,-0.0643,0,0,0,0,0,0,0.0158,0.0151,0.0063,0.0084,0.0069,-0.0023,-0.003,-0.0048,-0.009,-0.0205,-0.0231,-0.0145,-0.0335,-0.0361,-0.044,-0.0434,-0.0478,-0.0485,-0.0644,-0.0643,-0.0643,-0.0509,0,0,0,0,0,0,0.0161,0.0153,0.0152,0.0087,0.0069,0.0035,-0.0028,-0.0049,-0.0089,-0.0101,-0.0234,-0.0259,-0.0338,-0.0427,-0.0448,-0.0446,-0.0492,-0.0645,-0.0644,-0.0643,-0.0514,-0.0504,-0.0495,0,0,0,0,0,0.0164,0.0173,0.0153,0.0145,0.0074,0.0036,0.0021,-0.0054,-0.0088,-0.0101,-0.0189,-0.0255,-0.0438,-0.0433,-0.0458,-0.0458,-0.0645,-0.0644,-0.0643,-0.0518,-0.0506,-0.0495,0,0,0,0,0,0,0.0199,0.0159,0.0135,0.0128,0.0089,0.0015,-0.0003,-0.0046,-0.0124,-0.0142,-0.0252,-0.0282,-0.0353,-0.0419,-0.0411,-0.0504,-0.0551,-0.0555,-0.0448,-0.0437,-0.0428,-0.0352,-0.0499,0,0,0,0,0,0.0214,0.0208,0.0162,0.0154,0.0142,0.0073,0.0047,0.0001,-0.0069,-0.0106,-0.0196,-0.0288,-0.0364,-0.041,-0.0492,-0.0538,-0.056,-0.0554,-0.0544,-0.0535,-0.0491,-0.0509,-0.0495,-0.064,-0.064,-0.064,0,0,0.0222,0.0201,0.0195,0.0161,0.0123,0.0115,0.005,0.0018,0.0006,-0.012,-0.0176,-0.0265,-0.037,-0.0428,-0.0464,-0.0484,-0.0511,-0.0534,-0.0526,-0.0485,-0.0506,-0.0491,-0.0479,-0.0639,-0.0639,-0.0639,0,0,0.0251,0.0225,0.0236,0.0214,0.0175,0.0138,0.0137,0.0069,0.0032,-0.0025,-0.0115,-0.0179,-0.0313,-0.0366,-0.0414,-0.0396,-0.0464,-0.0442,-0.0332,-0.035,-0.0337,-0.0326,-0.0347,-0.0338,-0.0433,-0.0433,-0.0432,0,0.0265,0.0274,0.0231,0.024,0.0234,0.016,0.0177,0.0132,0.0043,0.0046,-0.0031,-0.0163,-0.0272,-0.0294,-0.0303,-0.0371,-0.0393,-0.0365,-0.0333,-0.0322,-0.0313,-0.0337,-0.033,-0.0426,-0.0427,-0.0428,-0.0428,0,0.0306,0.0311,0.0317,0.0309,0.0297,0.0295,0.0251,0.0231,0.0175,0.0142,0.0101,-0.0033,-0.0095,-0.0156,-0.0237,-0.022,-0.0262,-0.032,-0.0349,-0.0289,-0.0321,-0.0315,-0.0417,-0.0419,-0.0421,-0.0423,0,0,0.0347,0.035,0.035,0.0378,0.0339,0.0347,0.0342,0.0347,0.0385,0.0278,0.0319,0.0172,0.0125,0.0071,-0.0033,-0.006,-0.0051,-0.0154,-0.0158,-0.0151,-0.0085,-0.0173,-0.0176,-0.0104,-0.0102,-0.01,-0.0136,0,0.0394,0.0445,0.0426,0.0477,0.0506,0.0467,0.0487,0.0482,0.0453,0.0467,0.037,0.034,0.0204,0.0172,0.013,-0.0002,-0.0028,-0.0035,-0.0163,-0.0166,-0.0231,-0.0169,-0.0162,-0.0197,-0.0131,-0.013,-0.013,0,0.0443,0.0478,0.054,0.0603,0.0617,0.0635,0.0698,0.0706,0.0713,0.0693,0.0669,0.0584,0.0531,0.039,0.0255,0.0257,0.0111,0.0002,-0.0004,-0.0115,-0.0242,-0.0247,-0.019,-0.0121,-0.0122,-0.0122,-0.0123,0,0.051,0.0564,0.0628,0.0639,0.0686,0.0729,0.0756,0.0785,0.082,0.0846,0.0862,0.0802,0.0743,0.06,0.0343,0.0311,0.0184,0.0106,-0.0098,-0.0107,-0.0137,-0.0152,0.0028,0.0028,0.0029,0.0029,0.0029,0,0.0571,0.0623,0.0673,0.0708,0.0818,0.0824,0.0933,0.0956,0.0997,0.1065,0.0985,0.1005,0.0788,0.0665,0.0445,0.0198,0.0261,-0.0042,-0.0107,-0.0097,-0.0106,-0.0074,-0.0085,0.0027,0.0028,0.0028,0.0028,0,0.0619,0.0641,0.0731,0.0813,0.0845,0.0925,0.1014,0.1103,0.1124,0.1202,0.1208,0.1158,0.1021,0.078,0.0537,0.0313,0.0092,-0.0026,-0.0004,-0.0066,-0.0205,-0.0209,-0.0202,-0.0205,-0.0208,-0.021,-0.0212,0,0.0643,0.0692,0.0803,0.0865,0.09,0.1008,0.1092,0.1152,0.1232,0.129,0.1337,0.1246,0.1179,0.0814,0.0443,0.0093,0.0052,-0.0151,-0.0217,-0.0156,-0.0221,-0.0221,-0.0222,-0.0208,-0.021,-0.0211,-0.0212,0,0.0699,0.0734,0.0812,0.093,0.1031,0.115,0.1262,0.1339,0.1416,0.1495,0.1574,0.1531,0.1171,0.0822,0.0315,0.0081,-0.0084,-0.0192,-0.0103,-0.0167,-0.0169,-0.0231,-0.023,-0.0224,-0.0223,-0.0222,-0.0221,-0.0221,0.0735,0.0804,0.0895,0.1011,0.1118,0.1259,0.1363,0.1503,0.1646,0.17,0.1675,0.1563,0.1158,0.0482,0.0158,-0.018,-0.0198,-0.0348,-0.034,-0.0331,-0.0342,-0.035,-0.044,-0.044,-0.044,-0.044,-0.044,0,0.0784,0.0854,0.0966,0.1108,0.1223,0.126,0.1451,0.1577,0.1765,0.1739,0.174,0.1301,0.089,0.0498,-0.0038,-0.0375,-0.0352,-0.0435,-0.0346,-0.0336,-0.0326,-0.0332,-0.043,-0.043,-0.043,-0.043,0,0,0.0815,0.0927,0.0991,0.1164,0.124,0.1393,0.1495,0.171,0.1767,0.1746,0.1594,0.1318,0.0877,0.0476,0.0077,-0.016,-0.0156,-0.0194,-0.0185,-0.0024,-0.0009,-0.028,-0.0279,0,0,0,0,0]}],[{"header":{"parameterUnit":"m.s-1","parameterCategory":2,"la1":30.2991,"la2":30.254,"lo1":-89.0895,"lo2":-89.0444,"dy":0.0017,"dx":0.0017,"nx":28,"ny":28,"refTime":"2026-02-02T03:00:00:Z","depth":"4","parameterNumber":2,"parameterNumberName":"U-component_of_CURRENTS"},"data":[0,0,0,0,0,0,0,0,0,0,0,0,0,0,0,0,0,0,0,0,0,0,0,0,0,0,0,0,0,0,0,0,0,0,0,0,0,0,0,0,0,0,0,0,0,0,0,0,0,0,0,0,0,0,0,0,0,0,0.0563,0.0563,0,0.0576,0.0576,0.0576,0.0589,0.059,0.059,0.059,0.0623,0.0624,0.0624,0,0,0,0,0,0,0,0,0,0,0,0,0,0.051,0.0511,0.0563,0.0563,0.0563,0.0576,0.0576,0.0576,0.0589,0.059,0.059,0.059,0.0623,0.0624,0.0624,0,0,0,0,0,0,0,0,0,0,0,0,0,0.0528,0.0512,0.0563,0.0572,0.0574,0.0576,0.0576,0.0576,0.0589,0.059,0.059,0.0591,0.0623,0.0624,0.0625,0.0621,0,0,0.0627,0.0628,0,0,0,0,0,0,0,0,0.0527,0.053,0.0571,0.0572,0.0573,0.0583,0.057,0.0593,0.0589,0.0582,0.059,0.0591,0.0612,0.0614,0.0613,0.0622,0.0624,0.0627,0.0628,0.0628,0.0629,0,0,0,0,0,0,0,0.0526,0.0529,0.0567,0.0571,0.0573,0.0563,0.0567,0.0574,0.0593,0.0582,0.0584,0.0588,0.0613,0.0612,0.0614,0.0624,0.0627,0.0628,0.0629,0.0629,0.0679,0.068,0,0,0,0,0,0,0.0529,0.0528,0.0566,0.0567,0.0552,0.0564,0.0568,0.0578,0.0593,0.0596,0.0587,0.0588,0.061,0.0613,0.0615,0.0662,0.0628,0.0629,0.063,0.0679,0.0679,0.068,0,0,0,0,0,0,0.0528,0.0532,0.0566,0.0549,0.0552,0.0565,0.0576,0.0578,0.0595,0.0597,0.06,0.0604,0.0611,0.0614,0.0636,0.0661,0.0629,0.063,0.0678,0.0679,0.068,0.0723,0,0,0,0,0,0,0.0526,0.0532,0.0545,0.0549,0.0554,0.0581,0.0576,0.0578,0.0596,0.0598,0.0612,0.0615,0.0611,0.0634,0.0636,0.0662,0.0631,0.0677,0.0678,0.068,0.072,0.0725,0.073,0,0,0,0,0,0.0524,0.0538,0.0546,0.055,0.057,0.0582,0.0584,0.0592,0.0597,0.0608,0.0616,0.0615,0.0646,0.0636,0.0638,0.0664,0.0676,0.0678,0.0679,0.0718,0.0724,0.073,0,0,0,0,0,0,0.0517,0.054,0.0549,0.0568,0.0582,0.0585,0.0598,0.0603,0.0617,0.0624,0.0623,0.0626,0.0652,0.0652,0.0641,0.0683,0.0662,0.0664,0.069,0.0696,0.0701,0.0715,0.0632,0,0,0,0,0,0.0522,0.0543,0.0559,0.0576,0.0587,0.0596,0.0604,0.0612,0.0622,0.0629,0.064,0.065,0.0658,0.0673,0.0676,0.0703,0.07,0.0721,0.0726,0.073,0.0743,0.0762,0.077,0.0686,0.0686,0.0686,0,0,0.0521,0.054,0.0549,0.0576,0.0589,0.0607,0.0603,0.0623,0.0639,0.0631,0.0662,0.0665,0.0666,0.0691,0.0704,0.0699,0.0748,0.0732,0.0736,0.0747,0.0765,0.0773,0.078,0.0688,0.0687,0.0687,0,0,0.0527,0.0551,0.057,0.0588,0.0616,0.0623,0.0635,0.0653,0.0666,0.0692,0.0687,0.071,0.0727,0.0735,0.0739,0.0773,0.0766,0.0777,0.0821,0.084,0.0847,0.0853,0.0845,0.085,0.0787,0.0787,0.0787,0,0.0526,0.0554,0.0576,0.06,0.0617,0.0635,0.0655,0.067,0.0692,0.0708,0.071,0.0743,0.0748,0.0775,0.0792,0.0786,0.0786,0.08,0.0847,0.0853,0.0859,0.0848,0.0854,0.0789,0.0789,0.0789,0.0788,0,0.0541,0.0571,0.0585,0.0625,0.0646,0.0667,0.0692,0.0718,0.0739,0.0753,0.079,0.0798,0.0827,0.0827,0.0825,0.087,0.0852,0.0844,0.0833,0.087,0.0856,0.0861,0.0792,0.0791,0.0791,0.079,0,0,0.0518,0.0584,0.059,0.0617,0.0663,0.0679,0.0717,0.0752,0.0784,0.0811,0.0853,0.0873,0.0894,0.0901,0.0902,0.092,0.0959,0.0912,0.0912,0.0905,0.0987,0.0931,0.093,0.0963,0.0965,0.0966,0.0955,0,0.0524,0.0572,0.0604,0.065,0.0675,0.0713,0.0746,0.0782,0.0818,0.0866,0.0886,0.094,0.0917,0.096,0.0966,0.0969,0.0977,0.0962,0.0952,0.0951,0.0899,0.0936,0.0971,0.0958,0.0959,0.096,0.096,0,0.0525,0.056,0.0605,0.0671,0.0686,0.0721,0.0786,0.0824,0.0888,0.0927,0.0978,0.1009,0.1061,0.1041,0.105,0.1046,0.1028,0.1011,0.101,0.0951,0.0905,0.0918,0.0969,0.0968,0.0968,0.0967,0.0966,0,0.049,0.0559,0.0597,0.0619,0.0692,0.0729,0.078,0.0844,0.0905,0.1,0.1067,0.1095,0.1174,0.1136,0.1112,0.1105,0.1095,0.108,0.0997,0.0991,0.1024,0.1018,0.1083,0.1083,0.1083,0.1083,0.1083,0,0.0476,0.0507,0.0592,0.0613,0.0669,0.0731,0.0808,0.0864,0.0974,0.1035,0.1119,0.1155,0.1215,0.1212,0.1137,0.1076,0.1118,0.1014,0.0995,0.1039,0.1034,0.1026,0.102,0.1082,0.1083,0.1083,0.1083,0,0.0426,0.0482,0.053,0.062,0.0656,0.0702,0.0849,0.0904,0.1024,0.1115,0.1175,0.1271,0.1265,0.1253,0.1217,0.1149,0.1065,0.1025,0.1062,0.1043,0.094,0.0936,0.0955,0.0953,0.0952,0.095,0.0949,0,0.0406,0.0423,0.0525,0.0563,0.0612,0.0706,0.0768,0.0914,0.097,0.1121,0.1139,0.1245,0.1263,0.1158,0.114,0.1035,0.1006,0.099,0.0981,0.0952,0.0932,0.093,0.0928,0.0947,0.0946,0.0946,0.0945,0,0.0353,0.0391,0.0432,0.0518,0.0593,0.0676,0.0773,0.0826,0.0966,0.1089,0.1111,0.1133,0.1136,0.1096,0.1072,0.096,0.1018,0.0973,0.0976,0.0967,0.0942,0.0923,0.0923,0.094,0.0941,0.0941,0.0942,0,0.0313,0.0324,0.0389,0.0464,0.0558,0.0623,0.0684,0.0753,0.0848,0.101,0.0977,0.1025,0.1101,0.105,0.0955,0.0929,0.0912,0.0887,0.0894,0.09,0.0888,0.0849,0.0812,0,0,0,0,0,0.0272,0.0283,0.0335,0.0417,0.0513,0.0569,0.0674,0.0732,0.0853,0.085,0.0936,0.0903,0.0897,0.0893,0.085,0.0909,0.0899,0.0856,0.0871,0.091,0.0917,0.0907,0,0,0,0,0,0,0.0242,0.0276,0.0306,0.0379,0.0425,0.0521,0.0586,0.0656,0.0655,0.0768,0.0746,0.0852,0.0821,0.0901,0.0828,0.0832,0.0827,0.0887,0.0885,0.0907,0.0913,0.0918,0.0909,0,0,0,0,0]},{"header":{"parameterUnit":"m.s-1","parameterCategory":2,"la1":30.2991,"la2":30.254,"lo1":-89.0895,"lo2":-89.0444,"dy":0.0017,"dx":0.0017,"nx":28,"ny":28,"refTime":"2026-02-02T03:00:00:Z","depth":"4","parameterNumber":3,"parameterNumberName":"V-component_of_CURRENTS"},"data":[0,0,0,0,0,0,0,0,0,0,0,0,0,0,0,0,0,0,0,0,0,0,0,0,0,0,0,0,0,0,0,0,0,0,0,0,0,0,0,0,0,0,0,0,0,0,0,0,0,0,0,0,0,0,0,0,0,0,0.035,0.035,0,0.0334,0.0334,0.0334,0.0335,0.0335,0.0336,0.0336,0.0301,0.0299,0.0298,0,0,0,0,0,0,0,0,0,0,0,0,0,0.0348,0.0348,0.035,0.035,0.035,0.0335,0.0334,0.0334,0.0335,0.0335,0.0336,0.0336,0.0301,0.03,0.0298,0,0,0,0,0,0,0,0,0,0,0,0,0,0.0342,0.0348,0.035,0.0349,0.0348,0.0335,0.0334,0.0334,0.0335,0.0335,0.0336,0.0336,0.0301,0.03,0.0298,0.028,0,0,0.0293,0.0292,0,0,0,0,0,0,0,0,0.0342,0.0342,0.0349,0.0349,0.0348,0.0337,0.0321,0.0315,0.0335,0.034,0.0336,0.0336,0.0311,0.0308,0.0305,0.0278,0.0277,0.0292,0.0291,0.0291,0.029,0,0,0,0,0,0,0,0.0343,0.0343,0.0344,0.0349,0.0348,0.0337,0.0337,0.0319,0.0323,0.0339,0.034,0.0338,0.031,0.0306,0.0304,0.0276,0.0293,0.0291,0.029,0.0289,0.0248,0.0248,0,0,0,0,0,0,0.0346,0.0343,0.0344,0.0343,0.0346,0.0337,0.0337,0.034,0.0324,0.0322,0.0338,0.0338,0.0309,0.0306,0.0303,0.0285,0.0291,0.0289,0.0288,0.0248,0.0248,0.0248,0,0,0,0,0,0,0.0347,0.0347,0.0345,0.0343,0.0342,0.0337,0.0341,0.034,0.0343,0.0322,0.032,0.0342,0.0309,0.0305,0.0299,0.0283,0.0288,0.0287,0.0248,0.0248,0.0248,0.0247,0,0,0,0,0,0,0.0347,0.0347,0.0354,0.0343,0.0342,0.0342,0.034,0.0339,0.0341,0.0341,0.0325,0.0322,0.0309,0.0302,0.0297,0.0281,0.0285,0.0248,0.0248,0.0248,0.0247,0.0246,0.0246,0,0,0,0,0,0.0347,0.0356,0.0354,0.0354,0.035,0.0343,0.0341,0.0338,0.0341,0.0342,0.0337,0.0323,0.0298,0.0301,0.0295,0.0278,0.0249,0.0248,0.0248,0.0247,0.0246,0.0246,0,0,0,0,0,0,0.0359,0.0357,0.0354,0.0363,0.0355,0.0343,0.0347,0.0342,0.0339,0.0342,0.0325,0.0322,0.0309,0.0299,0.0302,0.0268,0.0269,0.0268,0.027,0.0269,0.0269,0.0253,0.0284,0,0,0,0,0,0.0364,0.0372,0.0362,0.0368,0.0367,0.0357,0.0355,0.0352,0.0345,0.0345,0.0333,0.032,0.0302,0.0292,0.0279,0.0261,0.0228,0.0246,0.0246,0.0246,0.023,0.0167,0.0158,0.0248,0.0248,0.0248,0,0,0.0371,0.037,0.0374,0.0371,0.0367,0.0362,0.0357,0.0357,0.0349,0.034,0.0332,0.0321,0.0299,0.0281,0.0273,0.0271,0.0208,0.0246,0.0246,0.023,0.0166,0.0156,0.0148,0.0248,0.0248,0.0248,0,0,0.0381,0.0387,0.0393,0.0388,0.0383,0.0374,0.0375,0.0365,0.0359,0.035,0.0337,0.0315,0.0301,0.027,0.0255,0.0244,0.0212,0.0247,0.0226,0.0165,0.0157,0.0149,0.0111,0.01,0.0243,0.0243,0.0243,0,0.0387,0.0394,0.0392,0.0393,0.0388,0.038,0.0377,0.0367,0.0355,0.0338,0.035,0.03,0.0286,0.0237,0.0237,0.0238,0.0211,0.0229,0.0163,0.0154,0.0146,0.0109,0.0096,0.0243,0.0243,0.0243,0.0243,0,0.0395,0.0403,0.0407,0.0404,0.0397,0.0396,0.0379,0.0369,0.0361,0.0341,0.0302,0.0281,0.0244,0.0238,0.0235,0.017,0.0173,0.0172,0.0159,0.0136,0.01,0.0086,0.0243,0.0243,0.0243,0.0243,0,0,0.04,0.041,0.0412,0.0411,0.0402,0.0396,0.0379,0.0349,0.0324,0.0307,0.0263,0.0231,0.0212,0.0192,0.0177,0.0126,0.0055,0.0127,0.0124,0.0083,-0.0066,-0.0044,-0.0056,0.0042,0.0039,0.0037,-0.0063,0,0.0404,0.0415,0.0412,0.0411,0.0412,0.0394,0.0373,0.0344,0.0316,0.0273,0.0228,0.0192,0.0196,0.0178,0.0124,0.007,0.0018,0.0083,-0.0032,-0.0036,-0.002,-0.0072,0.0029,-0.0073,-0.0076,-0.0078,-0.008,0,0.0407,0.0414,0.0423,0.041,0.0407,0.0404,0.036,0.0341,0.0276,0.0251,0.0196,0.0163,0.0087,0.0099,-0.0025,0.0019,-0.0027,-0.0066,-0.0071,-0.0065,-0.0039,-0.0048,-0.0104,-0.0102,-0.01,-0.0099,-0.0097,0,0.0411,0.0416,0.0425,0.0425,0.0411,0.0403,0.039,0.0337,0.0319,0.0238,0.0211,0.0113,0.0073,-0.0015,-0.0082,-0.0063,-0.0216,-0.0201,-0.0227,-0.0225,-0.0213,-0.0204,-0.0302,-0.0302,-0.0302,-0.0302,-0.0301,0,0.0412,0.0417,0.0434,0.0441,0.0436,0.0418,0.0399,0.0365,0.0319,0.0286,0.0209,0.0154,0.0042,-0.0048,-0.0113,-0.0212,-0.0245,-0.0253,-0.0264,-0.0206,-0.0195,-0.0222,-0.0211,-0.0305,-0.0304,-0.0304,-0.0303,0,0.0413,0.0428,0.0439,0.0443,0.0445,0.0444,0.0439,0.0415,0.0372,0.0324,0.0303,0.0178,0.0049,-0.0055,-0.0205,-0.024,-0.0342,-0.0363,-0.0291,-0.0291,-0.0301,-0.0289,-0.0421,-0.0422,-0.0422,-0.0422,-0.0423,0,0.0411,0.0423,0.0453,0.046,0.0468,0.0472,0.0469,0.0448,0.0424,0.0337,0.0304,0.0176,0.0086,-0.0119,-0.0226,-0.0369,-0.0369,-0.0412,-0.0368,-0.0324,-0.0321,-0.0308,-0.0296,-0.0423,-0.0423,-0.0423,-0.0423,0,0.0398,0.0423,0.0436,0.0465,0.0479,0.0487,0.0484,0.0481,0.044,0.041,0.0292,0.0179,0.0029,-0.0128,-0.0234,-0.033,-0.0387,-0.0415,-0.0415,-0.0374,-0.0327,-0.0321,-0.0309,-0.0424,-0.0424,-0.0424,-0.0424,0,0.0388,0.0398,0.0428,0.0447,0.0476,0.0486,0.0489,0.0453,0.0438,0.0357,0.0314,0.0153,0.0056,-0.0109,-0.0213,-0.0305,-0.0318,-0.0323,-0.0328,-0.0328,-0.026,-0.0184,-0.027,0,0,0,0,0,0.0365,0.0374,0.0395,0.0421,0.0459,0.048,0.0481,0.0477,0.0457,0.0384,0.0355,0.0216,0.0034,-0.007,-0.016,-0.0208,-0.0326,-0.0313,-0.0331,-0.043,-0.0429,-0.0362,0,0,0,0,0,0,0.0342,0.0366,0.0384,0.0407,0.0429,0.0462,0.0476,0.0462,0.0411,0.0374,0.0263,0.0217,0.0024,0.0089,-0.0156,-0.0188,-0.0204,-0.0403,-0.0404,-0.0431,-0.043,-0.0429,-0.036,0,0,0,0,0]}]]